| time (UTC) | temp C | wind direction | speed KPH | gust KPH | rain 1hr cm | rain 24hr cm | rain mn cm | humidity % | barometer mb |
| 20260506154843 | 11 | 332 | 12.9 | 22.5 | 0.00 | 6.71 | 0.71 | 85 | 1010.5 |
| 20260506154341 | 11 | 313 | 9.7 | 20.9 | 0.00 | 6.71 | 0.71 | 85 | 1010.4 |
| 20260506153814 | 11 | 306 | 14.5 | 24.1 | 0.00 | 6.71 | 0.71 | 85 | 1010.5 |
| 20260506153331 | 11 | 311 | 16.1 | 24.1 | 0.00 | 6.71 | 0.71 | 84 | 1010.5 |
| 20260506152828 | 11 | 300 | 14.5 | 22.5 | 0.00 | 6.71 | 0.71 | 84 | 1010.5 |
| 20260506152325 | 11 | 309 | 12.9 | 24.1 | 0.00 | 6.71 | 0.71 | 85 | 1010.5 |
| 20260506151821 | 11 | 331 | 16.1 | 22.5 | 0.00 | 6.71 | 0.71 | 84 | 1010.5 |
| 20260506151321 | 11 | 350 | 16.1 | 20.9 | 0.00 | 6.71 | 0.71 | 84 | 1010.5 |
| 20260506150818 | 11 | 338 | 12.9 | 24.1 | 0.00 | 6.71 | 0.71 | 84 | 1010.4 |
| 20260506150334 | 11 | 294 | 17.7 | 24.1 | 0.00 | 6.71 | 0.71 | 85 | 1010.4 |
| 20260506145829 | 11 | 325 | 12.9 | 22.5 | 0.00 | 6.71 | 0.71 | 85 | 1010.4 |
| 20260506145327 | 11 | 312 | 16.1 | 22.5 | 0.00 | 6.71 | 0.71 | 86 | 1010.4 |
| 20260506144823 | 11 | 317 | 17.7 | 22.5 | 0.00 | 6.71 | 0.71 | 86 | 1010.4 |
| 20260506144321 | 11 | 321 | 12.9 | 24.1 | 0.00 | 6.71 | 0.71 | 86 | 1010.4 |
| 20260506143817 | 11 | 319 | 17.7 | 24.1 | 0.00 | 6.71 | 0.71 | 85 | 1010.4 |
| 20260506143316 | 11 | 355 | 14.5 | 25.7 | 0.00 | 6.71 | 0.71 | 85 | 1010.4 |
| 20260506142830 | 11 | 321 | 19.3 | 25.7 | 0.00 | 6.71 | 0.71 | 85 | 1010.4 |
| 20260506142349 | 11 | 346 | 12.9 | 24.1 | 0.00 | 6.71 | 0.71 | 85 | 1010.4 |
| 20260506141822 | 11 | 325 | 12.9 | 24.1 | 0.00 | 6.71 | 0.71 | 86 | 1010.4 |
| 20260506141320 | 11 | 355 | 17.7 | 24.1 | 0.00 | 6.71 | 0.71 | 86 | 1010.5 |
| 20260506140815 | 11 | 348 | 14.5 | 27.4 | 0.00 | 6.71 | 0.71 | 85 | 1010.4 |
| 20260506140314 | 11 | 347 | 19.3 | 27.4 | 0.00 | 6.71 | 0.71 | 84 | 1010.4 |
| 20260506135829 | 11 | 344 | 12.9 | 24.1 | 0.00 | 6.81 | 0.71 | 85 | 1010.3 |
| 20260506135325 | 11 | 334 | 17.7 | 22.5 | 0.00 | 6.81 | 0.71 | 85 | 1010.2 |
| 20260506134820 | 11 | 342 | 16.1 | 22.5 | 0.00 | 6.81 | 0.71 | 85 | 1010.3 |
| 20260506134319 | 11 | 355 | 16.1 | 20.9 | 0.00 | 6.81 | 0.71 | 86 | 1010.2 |
| 20260506133816 | 11 | 344 | 16.1 | 24.1 | 0.00 | 6.81 | 0.71 | 85 | 1010.3 |
| 20260506133332 | 11 | 9 | 11.3 | 24.1 | 0.00 | 6.81 | 0.71 | 86 | 1010.3 |
| 20260506132828 | 11 | 355 | 16.1 | 22.5 | 0.00 | 6.81 | 0.71 | 84 | 1010.3 |
| 20260506132324 | 11 | 9 | 14.5 | 19.3 | 0.00 | 6.81 | 0.71 | 85 | 1010.3 |
| 20260506131820 | 12 | 339 | 14.5 | 19.3 | 0.00 | 6.81 | 0.71 | 84 | 1010.3 |
| 20260506131338 | 12 | 344 | 14.5 | 20.9 | 0.00 | 6.81 | 0.71 | 84 | 1010.3 |
| 20260506130834 | 12 | 336 | 11.3 | 24.1 | 0.00 | 6.81 | 0.71 | 84 | 1010.2 |
| 20260506130332 | 12 | 340 | 12.9 | 24.1 | 0.00 | 6.81 | 0.71 | 84 | 1010.2 |
| 20260506125827 | 12 | 350 | 12.9 | 19.3 | 0.00 | 6.91 | 0.71 | 84 | 1010.2 |
| 20260506125324 | 11 | 343 | 11.3 | 20.9 | 0.00 | 6.91 | 0.71 | 84 | 1010.1 |
| 20260506124838 | 11 | 347 | 16.1 | 20.9 | 0.00 | 6.91 | 0.71 | 83 | 1010.1 |
| 20260506124351 | 11 | 355 | 14.5 | 20.9 | 0.00 | 6.91 | 0.71 | 84 | 1010.2 |
| 20260506123843 | 11 | 338 | 12.9 | 20.9 | 0.00 | 6.91 | 0.71 | 85 | 1010.1 |
| 20260506123320 | 11 | 338 | 9.7 | 20.9 | 0.00 | 6.91 | 0.71 | 86 | 1010.1 |
| 20260506122814 | 11 | 355 | 16.1 | 19.3 | 0.00 | 6.91 | 0.71 | 85 | 1010.1 |
| 20260506122338 | 11 | 343 | 12.9 | 19.3 | 0.00 | 6.91 | 0.71 | 86 | 1010.1 |
| 20260506121831 | 11 | 335 | 9.7 | 22.5 | 0.00 | 6.91 | 0.71 | 86 | 1010.0 |
| 20260506121330 | 11 | 325 | 14.5 | 24.1 | 0.00 | 6.91 | 0.71 | 86 | 1010.0 |
| 20260506120825 | 11 | 355 | 12.9 | 24.1 | 0.00 | 6.91 | 0.71 | 87 | 1010.0 |
| 20260506120342 | 10 | 355 | 12.9 | 20.9 | 0.00 | 6.91 | 0.71 | 87 | 1009.9 |
| 20260506115817 | 10 | 324 | 14.5 | 19.3 | 0.00 | 7.49 | 0.71 | 87 | 1009.9 |
| 20260506115335 | 10 | 309 | 12.9 | 25.7 | 0.00 | 7.49 | 0.71 | 87 | 1009.9 |
| 20260506114849 | 10 | 360 | 19.3 | 29.0 | 0.00 | 7.49 | 0.71 | 87 | 1009.9 |
| 20260506114327 | 10 | 338 | 19.3 | 24.1 | 0.00 | 7.49 | 0.71 | 87 | 1009.8 |
| 20260506113822 | 10 | 325 | 20.9 | 25.7 | 0.00 | 7.49 | 0.71 | 87 | 1009.7 |
| 20260506113322 | 10 | 319 | 17.7 | 25.7 | 0.00 | 7.49 | 0.71 | 86 | 1009.7 |
| 20260506112817 | 11 | 338 | 16.1 | 25.7 | 0.00 | 7.49 | 0.71 | 87 | 1009.6 |
| 20260506112314 | 11 | 336 | 19.3 | 25.7 | 0.00 | 7.49 | 0.71 | 87 | 1009.7 |
| 20260506111836 | 10 | 325 | 19.3 | 25.7 | 0.00 | 7.49 | 0.71 | 87 | 1009.6 |
| 20260506111354 | 11 | 319 | 14.5 | 24.1 | 0.00 | 7.49 | 0.71 | 87 | 1009.6 |
| 20260506110829 | 11 | 339 | 14.5 | 25.7 | 0.00 | 7.49 | 0.71 | 87 | 1009.5 |
| 20260506110328 | 10 | 342 | 19.3 | 25.7 | 0.00 | 7.49 | 0.71 | 87 | 1009.5 |
| 20260506105825 | 10 | 351 | 12.9 | 24.1 | 0.00 | 7.59 | 0.71 | 88 | 1009.6 |
| 20260506105323 | 10 | 343 | 14.5 | 24.1 | 0.00 | 7.59 | 0.71 | 88 | 1009.5 |
| 20260506104817 | 10 | 331 | 16.1 | 24.1 | 0.00 | 7.59 | 0.71 | 89 | 1009.5 |
| 20260506104314 | 10 | 351 | 17.7 | 24.1 | 0.00 | 7.59 | 0.71 | 89 | 1009.6 |
| 20260506103829 | 10 | 333 | 16.1 | 25.7 | 0.00 | 7.59 | 0.71 | 89 | 1009.5 |
| 20260506103328 | 10 | 351 | 17.7 | 29.0 | 0.00 | 7.59 | 0.71 | 89 | 1009.5 |
| 20260506102839 | 10 | 333 | 20.9 | 29.0 | 0.00 | 7.59 | 0.71 | 89 | 1009.6 |
| 20260506102316 | 10 | 330 | 17.7 | 29.0 | 0.00 | 7.59 | 0.71 | 89 | 1009.6 |
| 20260506101830 | 10 | 334 | 16.1 | 24.1 | 0.00 | 7.59 | 0.71 | 89 | 1009.5 |
| 20260506101328 | 10 | 313 | 14.5 | 24.1 | 0.00 | 7.59 | 0.71 | 89 | 1009.4 |
| 20260506100821 | 10 | 331 | 14.5 | 24.1 | 0.00 | 7.59 | 0.71 | 90 | 1009.4 |
| 20260506100322 | 10 | 28 | 14.5 | 24.1 | 0.00 | 7.59 | 0.71 | 90 | 1009.4 |
| 20260506095816 | 10 | 9 | 12.9 | 25.7 | 0.00 | 7.59 | 0.71 | 89 | 1009.2 |
| 20260506095314 | 10 | 328 | 19.3 | 29.0 | 0.00 | 7.59 | 0.71 | 90 | 1009.2 |
| 20260506094829 | 10 | 341 | 19.3 | 29.0 | 0.00 | 7.59 | 0.71 | 90 | 1009.2 |
| 20260506094326 | 10 | 323 | 16.1 | 25.7 | 0.00 | 7.59 | 0.71 | 90 | 1009.1 |
| 20260506093823 | 10 | 326 | 17.7 | 27.4 | 0.00 | 7.59 | 0.71 | 91 | 1009.1 |
| 20260506093320 | 10 | 332 | 20.9 | 27.4 | 0.00 | 7.59 | 0.71 | 91 | 1009.1 |
| 20260506092836 | 9 | 325 | 20.9 | 27.4 | 0.00 | 7.59 | 0.71 | 92 | 1009.1 |
| 20260506092332 | 9 | 329 | 19.3 | 25.7 | 0.00 | 7.59 | 0.71 | 92 | 1009.1 |
| 20260506091827 | 8 | 332 | 17.7 | 27.4 | 0.00 | 7.59 | 0.71 | 91 | 1009.1 |
| 20260506091345 | 8 | 329 | 17.7 | 27.4 | 0.00 | 7.59 | 0.71 | 91 | 1009.0 |
| 20260506090818 | 9 | 360 | 16.1 | 27.4 | 0.00 | 7.59 | 0.71 | 91 | 1009.0 |
| 20260506090315 | 8 | 316 | 14.5 | 25.7 | 0.00 | 7.59 | 0.71 | 92 | 1009.0 |
| 20260506085831 | 8 | 330 | 14.5 | 25.7 | 0.00 | 7.59 | 0.71 | 92 | 1009.0 |
| 20260506085330 | 8 | 318 | 16.1 | 24.1 | 0.00 | 7.59 | 0.71 | 92 | 1009.0 |
| 20260506084826 | 8 | 316 | 14.5 | 24.1 | 0.00 | 7.59 | 0.71 | 92 | 1009.0 |
| 20260506084323 | 8 | 355 | 14.5 | 24.1 | 0.00 | 7.59 | 0.71 | 92 | 1008.9 |
| 20260506083817 | 8 | 335 | 17.7 | 27.4 | 0.10 | 7.59 | 0.71 | 92 | 1008.9 |
| 20260506083314 | 8 | 325 | 17.7 | 27.4 | 0.10 | 7.59 | 0.71 | 92 | 1008.9 |
| 20260506082829 | 8 | 331 | 16.1 | 20.9 | 0.20 | 7.59 | 0.71 | 92 | 1008.8 |
| 20260506082326 | 8 | 313 | 12.9 | 19.3 | 0.20 | 7.59 | 0.71 | 92 | 1008.8 |
| 20260506081821 | 8 | 294 | 12.9 | 19.3 | 0.30 | 7.59 | 0.71 | 92 | 1008.8 |
| 20260506081317 | 8 | 336 | 9.7 | 19.3 | 0.41 | 7.59 | 0.71 | 93 | 1008.7 |
| 20260506080833 | 8 | 348 | 11.3 | 20.9 | 0.41 | 7.59 | 0.71 | 93 | 1008.7 |
| 20260506080332 | 8 | 325 | 11.3 | 19.3 | 0.51 | 7.59 | 0.71 | 93 | 1008.7 |
| 20260506073341 | 8 | 334 | 17.7 | 27.4 | 0.71 | 7.49 | 0.71 | 93 | 1008.5 |
| 20260506072814 | 9 | 313 | 9.7 | 22.5 | 0.71 | 7.39 | 0.69 | 93 | 1008.4 |
| 20260506072328 | 8 | 323 | 14.5 | 22.5 | 0.71 | 7.39 | 0.69 | 93 | 1008.4 |
| 20260506071824 | 8 | 338 | 14.5 | 20.9 | 0.71 | 7.29 | 0.66 | 93 | 1008.4 |
| 20260506071320 | 8 | 331 | 14.5 | 19.3 | 0.61 | 7.19 | 0.64 | 93 | 1008.4 |
| 20260506070835 | 8 | 341 | 14.5 | 19.3 | 0.61 | 7.19 | 0.64 | 93 | 1008.4 |
| 20260506070359 | 8 | 329 | 12.9 | 19.3 | 0.61 | 7.11 | 0.61 | 93 | 1008.4 |
| 20260506062328 | 10 | 336 | 8.0 | 16.1 | 0.20 | 6.71 | 0.53 | 93 | 1007.7 |
| 20260506061824 | 10 | 342 | 8.0 | 14.5 | 0.20 | 6.60 | 0.51 | 93 | 1007.7 |
| 20260506061323 | 10 | 348 | 8.0 | 17.7 | 0.20 | 6.60 | 0.51 | 93 | 1007.6 |
| 20260506060819 | 9 | 337 | 12.9 | 17.7 | 0.20 | 6.60 | 0.51 | 93 | 1007.6 |
| 20260506060317 | 9 | 22 | 9.7 | 16.1 | 0.10 | 6.50 | 0.51 | 93 | 1007.5 |
| 20260506051317 | 10 | 19 | 14.5 | 22.5 | 0.00 | 6.40 | 0.48 | 93 | 1007.0 |
| 20260506050832 | 10 | 342 | 11.3 | 22.5 | 0.00 | 6.40 | 0.48 | 93 | 1007.0 |
| 20260506050328 | 10 | 360 | 12.9 | 25.7 | 0.00 | 6.40 | 0.48 | 93 | 1006.9 |
| 20260506044830 | 10 | 11 | 16.1 | 24.1 | 0.00 | 6.40 | 0.48 | 93 | 1006.8 |
| 20260506044328 | 10 | 360 | 11.3 | 24.1 | 0.00 | 6.40 | 0.48 | 93 | 1006.8 |
| 20260506043822 | 10 | 335 | 12.9 | 24.1 | 0.00 | 6.40 | 0.48 | 93 | 1006.7 |
| 20260506043320 | 10 | 360 | 9.7 | 19.3 | 0.00 | 6.40 | 0.48 | 93 | 1006.8 |
| 20260506042816 | 10 | 20 | 11.3 | 19.3 | 0.00 | 6.40 | 0.48 | 93 | 1006.7 |
| 20260506042332 | 10 | 339 | 11.3 | 20.9 | 0.00 | 6.40 | 0.48 | 93 | 1006.7 |
| 20260506041829 | 10 | 355 | 14.5 | 22.5 | 0.00 | 6.40 | 0.48 | 93 | 1006.7 |
| 20260506041327 | 10 | 360 | 16.1 | 22.5 | 0.00 | 6.40 | 0.48 | 93 | 1006.6 |
| 20260506040822 | 10 | 335 | 14.5 | 22.5 | 0.00 | 6.40 | 0.48 | 93 | 1006.6 |
| 20260506040340 | 10 | 346 | 16.1 | 22.5 | 0.00 | 6.40 | 0.48 | 93 | 1006.7 |
| 20260506035814 | 10 | 349 | 12.9 | 19.3 | 0.00 | 6.40 | 0.48 | 93 | 1006.8 |
| 20260506035400 | 10 | 344 | 11.3 | 17.7 | 0.00 | 6.40 | 0.48 | 93 | 1006.8 |
| 20260506034834 | 10 | 339 | 9.7 | 20.9 | 0.00 | 6.40 | 0.48 | 93 | 1006.8 |
| 20260506034332 | 10 | 332 | 14.5 | 20.9 | 0.00 | 6.40 | 0.48 | 93 | 1006.8 |
| 20260506033828 | 10 | 318 | 9.7 | 17.7 | 0.00 | 6.40 | 0.48 | 93 | 1006.8 |
| 20260506033326 | 10 | 312 | 9.7 | 17.7 | 0.00 | 6.40 | 0.48 | 93 | 1006.8 |
| 20260506032822 | 10 | 324 | 6.4 | 14.5 | 0.10 | 6.40 | 0.48 | 93 | 1006.8 |
| 20260506032338 | 10 | 319 | 8.0 | 14.5 | 0.10 | 6.40 | 0.48 | 93 | 1006.8 |
| 20260506031854 | 10 | 305 | 6.4 | 14.5 | 0.20 | 6.40 | 0.48 | 93 | 1006.7 |
| 20260506031330 | 10 | 340 | 9.7 | 16.1 | 0.41 | 6.40 | 0.48 | 93 | 1006.7 |
| 20260506030833 | 10 | 329 | 9.7 | 17.7 | 0.71 | 6.40 | 0.48 | 94 | 1006.7 |
| 20260506030331 | 10 | 342 | 11.3 | 17.7 | 0.99 | 6.40 | 0.48 | 93 | 1006.8 |
| 20260506025826 | 10 | 325 | 8.0 | 14.5 | 1.30 | 6.40 | 0.48 | 94 | 1006.8 |
| 20260506025323 | 10 | 325 | 4.8 | 12.9 | 1.60 | 6.40 | 0.48 | 94 | 1006.8 |
| 20260506024818 | 10 | 321 | 6.4 | 14.5 | 2.01 | 6.40 | 0.48 | 94 | 1006.8 |
| 20260506024316 | 10 | 317 | 6.4 | 14.5 | 2.01 | 6.40 | 0.48 | 94 | 1006.7 |
| 20260506023830 | 10 | 331 | 9.7 | 14.5 | 2.01 | 6.40 | 0.48 | 93 | 1006.8 |
| 20260506023314 | 10 | 329 | 6.4 | 12.9 | 2.11 | 6.40 | 0.48 | 94 | 1006.8 |
| 20260506022827 | 10 | 317 | 6.4 | 14.5 | 2.01 | 6.30 | 0.46 | 94 | 1006.8 |
| 20260506022324 | 10 | 349 | 8.0 | 14.5 | 2.11 | 6.30 | 0.46 | 94 | 1006.8 |
| 20260506021821 | 10 | 342 | 11.3 | 19.3 | 2.01 | 6.20 | 0.43 | 93 | 1006.7 |
| 20260506021320 | 10 | 350 | 14.5 | 20.9 | 1.80 | 5.89 | 0.38 | 93 | 1006.6 |
| 20260506020815 | 10 | 351 | 16.1 | 20.9 | 1.50 | 5.59 | 0.33 | 93 | 1006.5 |
| 20260506020332 | 10 | 19 | 14.5 | 20.9 | 1.30 | 5.41 | 0.28 | 93 | 1006.6 |
| 20260506015827 | 10 | 325 | 14.5 | 19.3 | 0.99 | 5.11 | 0.23 | 93 | 1006.6 |
| 20260506015323 | 11 | 325 | 9.7 | 14.5 | 0.71 | 4.70 | 0.15 | 93 | 1006.7 |
| 20260506014817 | 11 | 317 | 4.8 | 14.5 | 0.41 | 4.39 | 0.08 | 93 | 1006.7 |
| 20260506014334 | 11 | 331 | 11.3 | 14.5 | 0.41 | 4.39 | 0.08 | 93 | 1006.7 |
| 20260506013828 | 11 | 321 | 8.0 | 16.1 | 0.41 | 4.39 | 0.08 | 93 | 1006.7 |
| 20260506013327 | 11 | 346 | 9.7 | 17.7 | 0.30 | 4.29 | 0.05 | 94 | 1006.6 |
| 20260506012821 | 11 | 348 | 11.3 | 17.7 | 0.20 | 4.19 | 0.05 | 94 | 1006.5 |
| 20260506012341 | 11 | 340 | 11.3 | 17.7 | 0.20 | 4.19 | 0.05 | 94 | 1006.5 |
| 20260506011838 | 11 | 331 | 11.3 | 17.7 | 0.20 | 4.19 | 0.05 | 94 | 1006.5 |
| 20260506011314 | 11 | 23 | 9.7 | 19.3 | 0.10 | 4.09 | 0.03 | 94 | 1006.5 |
| 20260506010831 | 11 | 322 | 14.5 | 19.3 | 0.10 | 4.09 | 0.03 | 93 | 1006.4 |
| 20260506010330 | 11 | 336 | 9.7 | 17.7 | 0.10 | 4.09 | 0.03 | 94 | 1006.5 |
| 20260506005846 | 11 | 335 | 14.5 | 17.7 | 0.00 | 3.99 | 0.00 | 94 | 1006.5 |
| 20260506005324 | 11 | 333 | 12.9 | 17.7 | 0.00 | 3.99 | 0.00 | 94 | 1006.4 |
| 20260506004820 | 11 | 327 | 9.7 | 14.5 | 0.00 | 3.99 | 0.00 | 94 | 1006.5 |
| 20260506004318 | 11 | 298 | 8.0 | 14.5 | 0.00 | 3.99 | 0.00 | 94 | 1006.5 |
| 20260506003833 | 11 | 319 | 6.4 | 14.5 | 0.00 | 3.99 | 0.00 | 94 | 1006.5 |
| 20260506003353 | 11 | 317 | 6.4 | 12.9 | 0.00 | 3.99 | 0.00 | 94 | 1006.5 |
| 20260506002847 | 11 | 313 | 6.4 | 14.5 | 0.00 | 3.99 | 0.00 | 94 | 1006.5 |
| 20260506002324 | 11 | 301 | 9.7 | 14.5 | 0.00 | 3.99 | 0.00 | 94 | 1006.5 |
| 20260506001819 | 11 | 343 | 9.7 | 14.5 | 0.00 | 3.99 | 0.00 | 93 | 1006.5 |
| 20260506001316 | 11 | 337 | 9.7 | 14.5 | 0.00 | 3.99 | 0.00 | 94 | 1006.5 |
| 20260506000831 | 11 | 290 | 11.3 | 14.5 | 0.00 | 3.99 | 0.00 | 94 | 1006.6 |
| 20260506000330 | 11 | 303 | 9.7 | 16.1 | 0.00 | 3.99 | 0.00 | 94 | 1006.6 |
| 20260505235824 | 11 | 302 | 6.4 | 16.1 | 0.00 | 3.99 | 0.00 | 94 | 1006.6 |
| 20260505235320 | 11 | 312 | 8.0 | 12.9 | 0.00 | 3.99 | 0.00 | 94 | 1006.7 |
| 20260505234815 | 11 | 284 | 6.4 | 12.9 | 0.00 | 3.99 | 0.00 | 94 | 1006.7 |
| 20260505234328 | 11 | 292 | 8.0 | 12.9 | 0.00 | 3.99 | 0.00 | 94 | 1006.8 |
| 20260505233823 | 11 | 297 | 6.4 | 12.9 | 0.00 | 3.99 | 0.00 | 94 | 1006.7 |
| 20260505233341 | 11 | 288 | 4.8 | 9.7 | 0.00 | 3.99 | 0.00 | 94 | 1006.8 |
| 20260505232833 | 11 | 288 | 4.8 | 11.3 | 0.00 | 3.99 | 0.00 | 94 | 1006.8 |
| 20260505232330 | 11 | 297 | 3.2 | 6.4 | 0.00 | 3.99 | 0.00 | 94 | 1006.8 |
| 20260505231824 | 11 | 293 | 3.2 | 4.8 | 0.00 | 3.99 | 0.00 | 94 | 1006.8 |
| 20260505231343 | 11 | 292 | 1.6 | 3.2 | 0.00 | 3.99 | 0.00 | 94 | 1006.9 |
| 20260505230818 | 11 | 300 | 1.6 | 3.2 | 0.00 | 3.99 | 0.00 | 94 | 1006.8 |
| 20260505230316 | 11 | 319 | 1.6 | 4.8 | 0.00 | 3.99 | 0.00 | 94 | 1006.9 |
| 20260505225831 | 11 | 335 | 1.6 | 4.8 | 0.00 | 3.99 | 0.00 | 94 | 1006.9 |
| 20260505225327 | 11 | 267 | 1.6 | 4.8 | 0.00 | 3.99 | 0.00 | 94 | 1006.9 |
| 20260505224822 | 11 | 267 | 1.6 | 3.2 | 0.00 | 3.99 | 0.00 | 94 | 1006.9 |
| 20260505224340 | 12 | 267 | 0.0 | 3.2 | 0.00 | 3.99 | 0.00 | 94 | 1006.9 |
| 20260505223835 | 11 | 267 | 1.6 | 4.8 | 0.00 | 3.99 | 0.00 | 94 | 1007.0 |
| 20260505223333 | 11 | 267 | 1.6 | 4.8 | 0.00 | 3.99 | 0.00 | 94 | 1007.0 |
| 20260505222828 | 12 | 267 | 1.6 | 4.8 | 0.00 | 3.99 | 0.00 | 94 | 1007.0 |
| 20260505222326 | 12 | 267 | 1.6 | 3.2 | 0.00 | 3.99 | 0.00 | 94 | 1006.9 |
| 20260505221820 | 12 | 267 | 1.6 | 3.2 | 0.00 | 3.99 | 0.00 | 94 | 1007.0 |
| 20260505221320 | 12 | 267 | 1.6 | 4.8 | 0.00 | 3.99 | 0.00 | 94 | 1007.0 |
| 20260505220816 | 12 | 267 | 1.6 | 4.8 | 0.00 | 3.99 | 0.00 | 94 | 1006.9 |
| 20260505220400 | 12 | 267 | 3.2 | 4.8 | 0.00 | 3.99 | 0.00 | 94 | 1007.0 |
| 20260505215827 | 12 | 267 | 0.0 | 4.8 | 0.00 | 3.99 | 0.79 | 94 | 1007.0 |
| 20260505215327 | 12 | 267 | 1.6 | 8.0 | 0.00 | 3.99 | 0.79 | 94 | 1007.0 |
| 20260505214823 | 12 | 280 | 6.4 | 14.5 | 0.00 | 3.99 | 0.79 | 94 | 1007.1 |
| 20260505214342 | 12 | 282 | 8.0 | 14.5 | 0.00 | 3.99 | 0.79 | 94 | 1007.1 |
| 20260505213815 | 12 | 244 | 8.0 | 12.9 | 0.00 | 3.99 | 0.79 | 94 | 1007.1 |
| 20260505213314 | 12 | 192 | 3.2 | 4.8 | 0.00 | 3.99 | 0.79 | 94 | 1007.0 |
| 20260505212830 | 12 | 192 | 0.0 | 6.4 | 0.00 | 3.99 | 0.79 | 94 | 1007.1 |
| 20260505212327 | 12 | 197 | 3.2 | 6.4 | 0.00 | 3.99 | 0.79 | 94 | 1007.1 |
| 20260505211824 | 12 | 197 | 1.6 | 4.8 | 0.00 | 3.99 | 0.79 | 94 | 1007.1 |
| 20260505211322 | 12 | 197 | 3.2 | 4.8 | 0.00 | 3.99 | 0.79 | 94 | 1007.2 |
| 20260505210818 | 12 | 197 | 4.8 | 4.8 | 0.00 | 3.99 | 0.79 | 94 | 1007.1 |
| 20260505210317 | 12 | 196 | 1.6 | 3.2 | 0.00 | 3.99 | 0.79 | 94 | 1007.2 |
| 20260505205834 | 12 | 197 | 1.6 | 3.2 | 0.00 | 3.99 | 0.79 | 94 | 1007.3 |
| 20260505205331 | 12 | 197 | 0.0 | 3.2 | 0.00 | 3.99 | 0.79 | 94 | 1007.2 |
| 20260505204847 | 12 | 196 | 1.6 | 3.2 | 0.00 | 3.99 | 0.79 | 94 | 1007.3 |
| 20260505204324 | 12 | 196 | 1.6 | 3.2 | 0.00 | 3.99 | 0.79 | 94 | 1007.2 |
| 20260505203820 | 12 | 196 | 1.6 | 4.8 | 0.00 | 3.99 | 0.79 | 94 | 1007.3 |
| 20260505203317 | 12 | 196 | 3.2 | 4.8 | 0.00 | 3.99 | 0.79 | 94 | 1007.4 |
| 20260505202832 | 12 | 196 | 1.6 | 3.2 | 0.00 | 3.99 | 0.79 | 94 | 1007.4 |
| 20260505202331 | 12 | 196 | 1.6 | 4.8 | 0.00 | 3.99 | 0.79 | 94 | 1007.4 |
| 20260505201826 | 12 | 196 | 3.2 | 4.8 | 0.00 | 3.99 | 0.79 | 94 | 1007.3 |
| 20260505201324 | 12 | 196 | 0.0 | 3.2 | 0.00 | 3.99 | 0.79 | 94 | 1007.3 |
| 20260505200819 | 12 | 196 | 0.0 | 6.4 | 0.00 | 3.99 | 0.79 | 94 | 1007.3 |
| 20260505200318 | 12 | 196 | 1.6 | 6.4 | 0.00 | 3.99 | 0.79 | 94 | 1007.2 |
| 20260505195814 | 12 | 171 | 3.2 | 6.4 | 0.00 | 3.99 | 0.79 | 94 | 1007.3 |
| 20260505195333 | 12 | 171 | 0.0 | 3.2 | 0.00 | 3.99 | 0.79 | 94 | 1007.2 |
| 20260505194829 | 12 | 171 | 1.6 | 4.8 | 0.20 | 3.99 | 0.79 | 94 | 1007.1 |
| 20260505194350 | 12 | 171 | 3.2 | 6.4 | 0.20 | 3.99 | 0.79 | 94 | 1007.2 |
| 20260505193824 | 12 | 171 | 3.2 | 8.0 | 0.20 | 3.99 | 0.79 | 94 | 1007.1 |
| 20260505193322 | 12 | 126 | 3.2 | 6.4 | 0.20 | 3.99 | 0.79 | 94 | 1007.0 |
| 20260505192839 | 12 | 119 | 1.6 | 3.2 | 0.20 | 3.99 | 0.79 | 94 | 1006.9 |
| 20260505192315 | 12 | 118 | 1.6 | 4.8 | 0.20 | 3.99 | 0.79 | 94 | 1006.8 |
| 20260505191832 | 12 | 118 | 3.2 | 4.8 | 0.20 | 3.99 | 0.79 | 94 | 1006.9 |
| 20260505191329 | 12 | 199 | 1.6 | 3.2 | 0.20 | 3.99 | 0.79 | 94 | 1006.9 |
| 20260505190823 | 13 | 199 | 3.2 | 3.2 | 0.20 | 3.99 | 0.79 | 94 | 1006.9 |
| 20260505190320 | 13 | 199 | 3.2 | 3.2 | 0.20 | 3.99 | 0.79 | 93 | 1006.9 |
| 20260505185836 | 13 | 199 | 1.6 | 3.2 | 0.20 | 3.99 | 0.79 | 93 | 1006.9 |
| 20260505185332 | 13 | 199 | 0.0 | 1.6 | 0.10 | 3.91 | 0.79 | 93 | 1006.9 |
| 20260505184826 | 13 | 199 | 0.0 | 1.6 | 0.00 | 3.81 | 0.76 | 93 | 1007.0 |
| 20260505184326 | 13 | 199 | 0.0 | 1.6 | 0.00 | 3.81 | 0.76 | 93 | 1007.0 |
| 20260505183821 | 13 | 198 | 0.0 | 1.6 | 0.00 | 3.81 | 0.76 | 93 | 1006.9 |
| 20260505183318 | 13 | 198 | 0.0 | 3.2 | 0.00 | 3.81 | 0.76 | 93 | 1006.9 |
| 20260505182833 | 13 | 198 | 1.6 | 3.2 | 0.00 | 3.81 | 0.76 | 93 | 1006.9 |
| 20260505182331 | 13 | 198 | 1.6 | 3.2 | 0.10 | 3.81 | 0.76 | 93 | 1006.9 |
| 20260505181826 | 13 | 198 | 1.6 | 4.8 | 0.10 | 3.81 | 0.76 | 93 | 1006.9 |
| 20260505181324 | 13 | 198 | 1.6 | 4.8 | 0.10 | 3.81 | 0.76 | 93 | 1006.9 |
| 20260505180818 | 13 | 198 | 3.2 | 4.8 | 0.20 | 3.81 | 0.76 | 93 | 1006.8 |
| 20260505180315 | 13 | 198 | 1.6 | 4.8 | 0.20 | 3.81 | 0.76 | 93 | 1006.8 |
| 20260505175854 | 13 | 198 | 3.2 | 6.4 | 0.20 | 3.91 | 0.76 | 93 | 1006.9 |
| 20260505175332 | 13 | 198 | 3.2 | 6.4 | 0.20 | 3.91 | 0.76 | 93 | 1006.9 |
| 20260505174827 | 13 | 163 | 3.2 | 4.8 | 0.20 | 3.91 | 0.76 | 93 | 1006.9 |
| 20260505174326 | 13 | 163 | 3.2 | 4.8 | 0.20 | 3.91 | 0.76 | 93 | 1006.8 |
| 20260505173823 | 13 | 162 | 3.2 | 4.8 | 0.30 | 3.91 | 0.76 | 93 | 1006.8 |
| 20260505173320 | 13 | 162 | 1.6 | 8.0 | 0.51 | 3.91 | 0.76 | 93 | 1006.8 |
| 20260505172815 | 13 | 136 | 3.2 | 8.0 | 0.61 | 3.91 | 0.76 | 93 | 1006.8 |
| 20260505172358 | 13 | 136 | 4.8 | 6.4 | 0.61 | 3.81 | 0.74 | 93 | 1006.8 |
| 20260505171853 | 13 | 198 | 3.2 | 4.8 | 0.71 | 3.81 | 0.74 | 93 | 1006.8 |
| 20260505171333 | 13 | 198 | 1.6 | 3.2 | 0.79 | 3.81 | 0.74 | 93 | 1006.8 |
| 20260505170828 | 13 | 198 | 1.6 | 3.2 | 0.79 | 3.71 | 0.71 | 93 | 1006.9 |
| 20260505170327 | 13 | 198 | 1.6 | 4.8 | 0.89 | 3.71 | 0.71 | 93 | 1006.9 |
| 20260505165821 | 13 | 197 | 3.2 | 6.4 | 1.09 | 3.71 | 0.71 | 93 | 1007.0 |
| 20260505165338 | 13 | 197 | 1.6 | 6.4 | 1.30 | 3.71 | 0.71 | 92 | 1007.0 |
| 20260505164832 | 13 | 180 | 3.2 | 4.8 | 1.40 | 3.71 | 0.71 | 92 | 1007.0 |
| 20260505164330 | 13 | 50 | 1.6 | 3.2 | 1.80 | 3.61 | 0.71 | 92 | 1006.9 |
| 20260505163825 | 13 | 42 | 0.0 | 4.8 | 2.31 | 3.61 | 0.71 | 92 | 1006.9 |
| 20260505163324 | 13 | 42 | 3.2 | 4.8 | 2.31 | 3.40 | 0.66 | 92 | 1006.8 |
| 20260505162820 | 13 | 19 | 3.2 | 4.8 | 2.31 | 3.30 | 0.64 | 92 | 1006.8 |
| 20260505162320 | 13 | 19 | 0.0 | 3.2 | 2.21 | 3.20 | 0.61 | 92 | 1007.0 |
| 20260505161817 | 13 | 19 | 1.6 | 3.2 | 2.11 | 3.10 | 0.61 | 91 | 1007.0 |
| 20260505161316 | 13 | 19 | 0.0 | 3.2 | 2.01 | 3.00 | 0.58 | 91 | 1006.9 |
| 20260505160833 | 13 | 19 | 0.0 | 4.8 | 1.91 | 2.90 | 0.56 | 91 | 1006.9 |
| 20260505160332 | 13 | 19 | 1.6 | 4.8 | 1.80 | 2.79 | 0.53 | 90 | 1007.0 |